TimeMDT,TemperatureF,Dew PointF,Humidity,Sea Level PressureIn,VisibilityMPH,Wind Direction,Wind SpeedMPH,Gust SpeedMPH,PrecipitationIn,Events,Conditions,WindDirDegrees,DateUTC
12:53 AM,50.0,37.9,63,30.05,10.0,SSE,9.2,-,N/A,,Partly Cloudy,150,2012-10-31 06:53:00
1:53 AM,48.9,37.9,66,30.04,10.0,SE,6.9,-,N/A,,Partly Cloudy,140,2012-10-31 07:53:00
2:53 AM,46.9,36.0,66,30.05,10.0,ESE,9.2,-,N/A,,Clear,120,2012-10-31 08:53:00
3:53 AM,46.9,34.0,61,30.04,10.0,SE,6.9,-,N/A,,Clear,130,2012-10-31 09:53:00
4:53 AM,48.0,34.0,58,30.03,10.0,SE,8.1,-,N/A,,Partly Cloudy,140,2012-10-31 10:53:00
5:53 AM,46.0,33.1,61,30.05,10.0,ESE,6.9,-,N/A,,Partly Cloudy,120,2012-10-31 11:53:00
6:53 AM,46.0,33.1,61,30.07,10.0,SE,9.2,-,N/A,,Partly Cloudy,130,2012-10-31 12:53:00
7:53 AM,46.0,33.1,61,30.07,10.0,ESE,6.9,-,N/A,,Scattered Clouds,120,2012-10-31 13:53:00
8:53 AM,50.0,34.0,54,30.09,10.0,ESE,9.2,-,N/A,,Scattered Clouds,120,2012-10-31 14:53:00
9:53 AM,57.0,34.0,42,30.08,10.0,SSE,10.4,-,N/A,,Scattered Clouds,150,2012-10-31 15:53:00
10:53 AM,62.1,34.0,35,30.07,10.0,ESE,6.9,-,N/A,,Scattered Clouds,120,2012-10-31 16:53:00
11:53 AM,66.0,30.9,27,30.06,10.0,SE,11.5,-,N/A,,Scattered Clouds,140,2012-10-31 17:53:00
12:53 PM,69.8,30.2,23,30.12,10.0,ESE,4.6,-,N/A,,Mostly Cloudy,120,2012-10-31 18:53:00
1:53 PM,73.0,30.0,20,29.98,10.0,SSE,9.2,-,N/A,,Mostly Cloudy,150,2012-10-31 19:53:00
2:53 PM,75.0,25.0,16,29.95,10.0,South,16.1,21.9,N/A,,Mostly Cloudy,180,2012-10-31 20:53:00
3:53 PM,75.0,25.0,16,29.91,10.0,South,17.3,-,N/A,,Mostly Cloudy,190,2012-10-31 21:53:00
4:53 PM,73.9,26.1,17,29.91,10.0,South,11.5,-,N/A,,Mostly Cloudy,180,2012-10-31 22:53:00
5:53 PM,70.0,27.0,20,29.92,10.0,SSE,8.1,-,N/A,,Mostly Cloudy,150,2012-10-31 23:53:00
6:53 PM,64.0,28.9,27,29.93,10.0,SSE,9.2,-,N/A,,Mostly Cloudy,150,2012-11-01 00:53:00
7:53 PM,62.1,30.0,30,29.94,10.0,SE,11.5,-,N/A,,Mostly Cloudy,130,2012-11-01 01:53:00
8:53 PM,60.8,28.4,29,30.01,10.0,SE,8.1,-,N/A,,Mostly Cloudy,130,2012-11-01 02:53:00
9:53 PM,57.2,30.2,36,30.00,10.0,SE,9.2,-,N/A,,Mostly Cloudy,130,2012-11-01 03:53:00
10:53 PM,60.1,28.0,30,29.90,10.0,SE,12.7,-,N/A,,Mostly Cloudy,140,2012-11-01 04:53:00
11:53 PM,59.0,28.9,32,29.88,10.0,SE,13.8,-,N/A,,Mostly Cloudy,130,2012-11-01 05:53:00